Regional Weather Roundup
Issued by NWS

Home | Current Version | Previous Version | Text Only | Print | Product List | Glossary Off
Versions: 1 2 3 4 5 6 7 8 9 10 11 12 13 14 15 16 17 18 19 20 21 22 23 24 25 26 27 28 29 30 31 32 33 34 35 36 37 38 39 40 41 42 43 44 45 46 47 48 49 50

000
ASUS43 KLMK 231110
RWRKY
KENTUCKY REGIONAL WEATHER ROUNDUP
NATIONAL WEATHER SERVICE LOUISVILLE KY
600 AM EST TUE JAN 23 2018

NOTE "FAIR" INDICATES FEW OR NO CLOUDS BELOW 12,000 FEET
WITH NO SIGNIFICANT WEATHER AND/OR OBSTRUCTIONS TO VISIBILITY.

KYZ001>023-026-027-061>063-070>075-231200-
WESTERN AND SOUTH CENTRAL KENTUCKY

CITY           SKY/WX    TMP DP  RH WIND       PRES   REMARKS
PADUCAH        CLOUDY    40  28  62 W16G26    29.85R WCI  31
HENDERSON      CLOUDY    40  31  70 W12       29.80R WCI  33
OWENSBORO      MOCLDY    41  29  62 W15G22    29.80R
HOPKINSVILLE   CLOUDY    42  28  55 W15       29.84R
BOWLING GREEN  CLOUDY    46  31  55 SW14G24   29.83R
GLASGOW        CLOUDY    44  30  58 W13G24    29.81R
$$

KYZ024-025-028>034-038-045-046-053-231200-
NORTH CENTRAL KENTUCKY

CITY           SKY/WX    TMP DP  RH WIND       PRES   REMARKS
LOUISVILLE/SDF MOCLDY    44  30  57 SW14G31   29.75R
LOUISVILLE/LOU MOCLDY    42  31  64 SW14G25   29.76R
FORT KNOX      MOCLDY    41  28  59 SW15      29.74R
$$

KYZ035>037-039>044-047>052-055>060-089>105-231200-
NORTHEAST KENTUCKY

CITY           SKY/WX    TMP DP  RH WIND       PRES   REMARKS
LEXINGTON      CLOUDY    45  28  51 SW17G31   29.74R
COVINGTON      CLOUDY    39  34  82 W14G28    29.70R WCI  31
FRANKFORT      CLOUDY    45  26  47 SW15G29   29.73R
$$

KYZ054-064>069-076>088-106>120-231200-
SOUTHEAST KENTUCKY

CITY           SKY/WX    TMP DP  RH WIND       PRES   REMARKS
JACKSON        FAIR      44  33  65 W10G22    29.75R
LONDON         MOCLDY    45  30  55 W15G23    29.79R
SOMERSET       CLOUDY    45  30  57 W15G25    29.82R
MIDDLESBORO    FAIR      48  30  49 W6        29.81R
MONTICELLO     CLOUDY    45  30  55 SW24G31   29.83R
$$





USA.gov is the U.S. government's official web portal to all federal, state and local government web resources and services.